Temperature
25 27 27 27 27 26 26 26 25 24 22 22 23 23 22 21 20 20 19 19 19 18 17 16 15 14 14 14 13 13 13 13 12 12 12 12 12 12 12 12 13 13 13 13
26 26 27 26 25 25 26 26 25 23 22 22 23 23 23 21 20 20 20 19 19 17 17 16 15 14 14 13 13 13 13 12 12 12 12 12 12 12 12 12 12 12 13 13
27 26 25 25 25 25 25 25 25 24 22 22 22 23 23 22 20 19 19 18 18 17 16 16 15 14 14 13 13 13 12 12 12 12 12 12 12 12 12 12 12 12 13 13
26 25 25 25 25 25 25 24 23 23 23 24 22 24 24 22 21 20 20 19 18 17 16 15 15 14 14 13 13 13 12 12 12 12 12 12 12 12 12 12 12 12 12 12
25 25 25 25 24 24 24 23 23 23 23 23 23 23 25 22 22 22 20 19 18 17 16 15 15 14 14 13 13 12 12 12 12 12 12 12 12 12 12 12 12 12 12 12
24 24 25 24 23 23 23 23 23 23 24 23 23 23 24 24 23 22 21 19 18 17 16 15 15 14 13 13 13 12 12 12 12 12 12 12 12 12 12 12 12 12 12 12
24 24 23 23 23 23 24 24 24 24 24 24 22 22 23 23 22 21 20 19 18 17 16 15 15 14 13 13 13 12 12 12 12 12 12 12 11 11 11 12 12 12 12 12
25 24 24 24 24 24 24 24 24 23 24 24 22 22 24 22 20 19 19 18 17 17 16 15 15 14 13 13 13 12 12 12 12 12 12 11 11 11 11 11 11 11 11 11
26 24 23 23 23 24 24 24 24 24 23 23 24 23 23 21 21 20 19 18 18 17 16 15 15 14 14 13 13 12 12 12 11 11 11 11 11 11 11 11 11 11 11 11
27 24 23 22 23 21 24 23 23 23 23 23 24 23 23 23 22 21 20 19 18 17 16 16 15 14 14 13 13 12 12 12 11 11 11 11 11 11 11 11 11 11 11 11
26 25 23 23 23 24 22 22 23 23 22 22 23 24 23 23 22 21 21 19 18 17 16 16 15 14 14 13 13 12 12 12 12 11 11 11 11 11 11 11 11 11 11 11
24 26 24 23 22 22 23 23 23 23 23 22 22 23 22 22 21 20 20 19 18 17 16 16 15 14 14 13 13 13 12 12 12 11 11 11 11 11 11 11 11 11 11 11
24 25 24 23 22 21 22 22 22 22 22 22 22 24 22 22 21 20 19 19 18 17 16 16 15 15 14 14 13 13 13 12 12 12 11 11 11 11 11 11 11 11 11 11
23 25 25 24 24 23 22 21 21 22 22 22 22 23 23 23 22 21 20 19 18 17 17 16 15 15 14 14 14 13 13 12 12 12 11 11 11 11 11 11 11 11 11 11
24 25 24 23 22 22 22 22 21 21 22 22 23 23 23 23 22 21 20 19 18 17 17 16 16 15 15 14 14 13 13 12 12 12 12 11 11 11 11 11 11 11 11 11
23 24 23 23 22 22 22 22 22 21 22 22 22 22 24 22 21 21 20 19 18 18 17 17 16 16 15 15 14 13 13 12 12 12 12 11 11 11 11 11 11 11 11 11
23 23 23 23 22 22 23 23 22 22 22 22 22 23 23 22 21 21 20 19 19 18 17 17 17 16 16 15 14 14 13 13 12 12 12 12 11 11 11 11 11 11 11 11
23 23 23 23 23 22 24 23 23 23 23 23 23 23 22 22 21 20 20 19 19 18 17 17 17 16 16 15 14 14 13 13 13 12 12 12 11 11 11 11 11 11 11 11
22 22 23 23 23 23 24 23 22 23 23 24 23 23 22 20 20 21 20 19 19 18 18 17 17 16 16 15 15 14 14 13 13 13 12 12 12 12 12 11 11 11 11 11
20 22 23 22 22 23 24 23 22 23 23 24 23 22 22 21 23 23 20 19 19 18 18 17 17 16 16 15 15 14 14 14 13 13 12 12 12 12 12 12 11 11 11 11
21 21 22 22 23 24 23 21 21 23 24 22 22 22 21 22 23 21 19 19 19 18 18 17 17 16 16 15 15 15 14 14 13 13 13 13 12 12 12 12 12 11 11 11
23 22 22 22 22 23 21 21 23 23 22 21 21 21 20 20 20 19 19 19 19 19 18 18 17 16 16 16 15 15 15 14 14 14 13 13 13 12 12 12 12 11 11 11
23 23 23 23 23 21 19 20 19 18 19 19 20 19 19 19 19 19 18 18 18 18 18 18 17 17 16 16 16 15 15 15 14 14 14 13 13 13 12 12 12 11 11 11
22 20 21 22 22 20 18 17 17 17 17 18 18 18 18 18 19 18 18 18 18 18 18 18 17 17 16 16 16 16 15 15 15 14 14 14 13 13 13 13 12 12 11 11
22 20 21 22 22 19 17 16 16 16 16 17 17 18 18 18 18 18 18 18 18 18 18 18 17 17 17 16 16 16 16 16 15 15 14 14 14 13 13 13 13 12 12 12
21 21 22 23 21 21 19 16 16 16 16 16 17 17 18 18 18 18 18 18 18 18 18 18 17 17 16 16 16 16 16 16 15 15 14 14 14 14 14 13 13 13 13 13
Wind_Speed
8 9 9 8 6 3 3 5 5 0 2 5 8 8 6 7 9 9 8 6 5 4 4 5 6 7 8 9 10 10 10 10 9 8 8 8 7 7 6 6 7 7 7 7
9 10 5 3 4 4 4 5 3 2 2 4 6 9 7 7 9 8 8 6 5 5 5 5 6 6 8 9 10 10 10 10 10 8 8 7 8 7 6 5 6 7 6 6
11 5 7 7 6 5 3 4 3 2 2 4 6 7 6 6 7 7 8 6 5 4 6 6 6 7 7 9 10 9 10 10 10 9 7 7 6 6 5 6 5 6 6 6
6 5 7 7 5 4 2 0 2 3 4 2 3 5 2 4 6 7 7 6 5 4 4 5 6 7 7 8 9 9 10 10 10 9 8 9 7 7 7 7 6 6 5 5
6 6 7 5 2 1 3 3 2 3 5 6 4 6 1 3 4 4 4 4 4 3 3 4 5 6 7 8 8 9 9 9 10 9 8 8 8 7 7 7 7 7 6 5
6 4 2 3 4 4 7 5 3 4 5 5 1 4 3 1 1 0 1 2 3 2 3 3 4 5 6 7 7 8 9 9 9 9 8 8 9 9 9 8 8 7 6 5
7 5 4 4 6 5 5 5 4 4 4 1 1 5 4 2 1 2 2 2 2 2 2 3 4 5 6 6 7 7 8 9 9 9 9 9 9 9 8 8 8 8 6 6
9 7 5 3 2 3 3 4 5 4 4 2 3 4 1 1 1 3 3 2 3 3 2 3 4 4 5 6 6 7 8 8 9 9 9 9 8 7 6 8 8 7 6 6
7 6 5 3 2 2 3 2 3 5 4 5 3 3 2 2 4 4 4 4 4 3 3 3 3 4 4 5 5 6 7 8 8 8 9 8 9 8 8 8 8 7 7 6
3 5 6 5 5 3 2 3 3 4 4 3 3 3 1 1 1 3 5 5 4 4 3 3 3 3 4 4 4 5 6 7 7 8 8 7 8 8 8 8 8 8 8 7
2 4 6 6 6 4 5 4 3 3 3 4 3 1 2 1 2 3 4 4 4 4 4 3 3 3 3 3 4 4 5 6 6 7 8 8 8 8 8 8 8 8 7 7
1 2 4 4 2 1 4 4 5 4 3 3 4 2 3 2 3 5 5 4 4 5 4 4 3 3 3 3 4 4 5 5 5 6 7 7 7 7 8 8 8 8 7 7
4 4 4 4 5 5 5 4 5 3 3 4 4 1 3 2 5 5 5 5 5 5 5 4 4 3 3 3 3 4 4 5 5 5 6 7 7 8 8 8 8 8 8 7
2 5 6 5 1 4 6 7 8 7 5 5 7 8 6 6 6 5 5 6 6 6 6 5 4 4 3 3 3 3 3 4 4 5 5 6 7 7 8 8 8 8 8 8
4 5 4 2 1 3 5 8 10 11 8 7 7 9 12 9 6 5 4 6 6 7 7 6 6 4 4 3 3 3 3 3 3 4 5 6 6 6 6 7 7 8 8 9
4 4 4 5 4 5 7 9 11 11 10 11 12 11 6 4 4 4 4 5 7 7 7 6 6 5 5 4 3 2 2 2 3 3 4 5 5 5 6 7 7 8 8 8
6 5 5 4 4 5 8 9 12 8 9 8 7 5 4 5 4 4 4 5 7 7 7 7 6 6 5 4 3 2 2 2 2 2 3 3 4 5 5 6 6 7 7 8
5 6 4 3 5 5 2 3 5 8 7 9 9 8 6 6 6 5 5 5 6 6 7 7 6 6 5 4 3 3 2 2 2 2 2 2 3 4 5 5 6 6 6 7
3 5 4 4 4 4 2 4 5 5 3 4 6 5 4 3 5 4 3 5 5 5 5 6 6 6 5 5 4 4 3 3 2 2 2 2 2 3 4 5 5 5 6 6
2 4 5 4 4 3 3 5 3 4 4 2 3 3 2 3 2 1 1 2 4 4 4 5 6 6 6 5 5 5 4 4 3 3 2 2 2 3 3 4 4 5 5 5
7 6 8 7 5 3 2 4 5 4 2 2 1 2 3 3 3 3 1 1 2 4 5 5 6 6 6 6 6 7 6 5 4 3 3 3 3 3 3 3 3 4 4 4
8 7 7 6 6 4 5 6 5 1 3 2 3 3 4 4 3 3 2 2 2 3 4 6 6 6 6 6 7 8 7 6 5 4 4 4 4 4 3 3 3 3 3 3
7 6 4 6 2 3 4 2 1 3 3 3 3 3 4 4 3 2 2 2 3 4 4 5 6 6 6 7 8 9 7 6 6 6 6 6 5 5 4 4 4 4 3 3
6 4 4 5 5 3 3 2 2 3 4 4 4 3 3 3 2 2 2 1 2 3 4 5 6 6 6 7 8 9 7 6 7 8 8 7 7 6 6 5 5 4 4 4
5 8 6 6 4 5 5 2 1 2 1 1 1 1 1 1 1 1 1 1 1 2 3 4 6 7 7 6 7 8 7 8 9 9 9 8 7 7 6 6 5 6 5 4
8 8 8 6 6 6 5 3 0 1 1 2 2 3 3 2 2 2 2 2 2 2 2 3 5 6 7 6 7 7 7 8 10 10 9 8 7 7 7 7 6 9 9 6
Wind_Direction
176 197 208 211 222 285 283 272 279 274 164 231 250 260 241 217 223 234 240 252 274 306 329 341 339 338 338 343 342 340 336 340 341 339 334 332 330 326 324 325 325 315 306 299
182 208 196 160 170 207 243 265 270 162 184 251 271 270 252 226 229 238 249 258 276 304 320 337 336 339 342 344 344 341 340 341 342 338 328 321 319 315 320 321 321 320 316 307
202 160 149 162 174 204 232 276 289 255 190 222 279 262 215 209 226 234 243 255 270 288 313 331 338 340 341 344 346 340 339 337 340 337 330 326 324 317 326 330 324 321 318 309
171 143 163 170 175 238 229 111 211 215 248 268 281 299 192 200 227 232 238 241 255 272 298 322 332 338 340 344 342 340 342 341 342 339 338 336 333 331 330 327 324 319 313 309
144 154 168 171 132 213 99 122 183 238 266 274 239 276 241 174 246 238 233 237 249 264 294 315 326 332 338 343 342 343 345 346 348 346 344 335 336 335 333 331 331 329 327 321
112 107 86 113 96 113 139 156 171 217 252 261 246 271 285 177 331 5 204 222 235 257 286 306 321 328 336 342 344 345 347 349 350 348 345 346 342 340 340 342 340 335 329 325
138 128 114 141 140 147 207 256 263 238 233 258 120 265 278 31 306 270 270 245 235 251 282 305 317 327 335 341 344 344 347 347 350 349 349 349 346 340 340 339 337 335 332 331
177 165 150 169 225 199 211 272 296 300 302 308 209 255 322 80 253 240 237 233 233 245 265 290 309 320 327 336 341 342 345 346 350 351 351 348 350 344 342 339 335 332 331 333
189 144 120 103 101 210 192 226 326 285 288 280 246 258 262 172 218 221 225 227 235 245 254 278 299 310 320 331 339 342 342 344 349 351 349 348 348 346 342 340 339 335 333 332
172 147 149 141 143 59 342 155 214 260 290 289 282 263 272 180 235 230 238 241 239 238 248 267 291 304 315 326 331 338 339 341 347 348 350 349 346 347 344 341 344 342 342 338
209 175 156 181 214 203 171 193 225 253 281 291 309 41 81 292 297 280 266 251 240 236 244 260 283 299 306 312 323 333 337 340 347 348 349 350 352 350 348 349 348 343 345 346
177 229 190 173 127 327 240 232 226 259 250 258 284 293 115 248 272 272 270 251 234 232 239 249 266 281 292 303 317 331 338 341 345 346 347 351 351 354 353 353 351 348 349 349
166 208 205 181 180 188 207 205 219 247 258 246 260 289 126 254 275 267 257 244 227 226 232 239 250 266 282 294 305 321 335 340 342 346 349 353 357 358 356 354 356 356 356 354
223 227 257 281 360 169 194 193 202 216 242 251 251 283 301 304 298 281 251 235 225 226 231 238 246 254 265 282 292 310 327 335 337 342 350 356 357 356 353 354 358 360 1 1
229 237 229 232 162 201 219 207 203 221 244 263 280 288 299 313 306 288 253 229 225 227 231 235 239 247 252 266 279 294 312 322 327 337 348 354 356 358 356 357 0 3 3 4
213 220 202 205 199 224 241 232 220 230 243 254 273 286 295 311 292 270 240 223 226 228 230 233 235 238 244 253 261 268 289 305 316 333 348 352 352 357 357 356 360 4 3 4
189 203 215 212 186 233 249 229 213 216 221 237 260 289 316 298 288 273 256 232 233 233 229 230 231 230 235 241 247 255 275 283 297 325 344 345 350 356 353 353 359 0 2 7
192 197 215 222 206 232 107 109 198 222 241 236 257 281 287 287 290 272 256 247 239 232 228 225 225 221 226 229 226 234 241 253 281 308 328 342 345 350 349 350 353 353 358 5
227 200 211 227 229 246 199 183 189 209 221 223 249 276 287 284 263 235 221 236 241 228 222 218 217 216 218 219 217 222 231 238 255 280 301 320 330 340 343 347 349 349 353 359
173 222 226 220 235 223 135 129 171 219 202 129 233 276 260 241 270 52 73 219 225 216 206 203 206 211 215 216 214 224 235 239 245 255 268 282 299 314 328 337 340 343 345 347
189 203 221 227 236 242 122 141 173 210 125 71 282 270 229 238 321 12 356 219 211 204 200 200 204 210 216 215 215 228 236 241 241 241 247 251 260 276 298 314 322 329 337 340
199 195 204 208 219 209 132 165 199 9 27 322 296 278 252 261 291 302 282 237 213 202 199 202 208 214 215 216 222 234 240 241 233 232 239 246 253 263 272 282 296 305 315 323
215 218 210 211 208 82 156 195 330 322 291 295 293 293 270 261 270 280 276 248 220 215 207 207 217 223 220 219 227 240 241 236 231 232 238 243 247 248 254 265 273 280 286 302
196 200 215 228 227 196 184 219 282 287 280 291 293 287 258 251 275 283 283 277 241 229 223 218 223 232 233 229 231 242 246 236 235 239 245 244 247 248 244 247 260 268 276 282
187 183 208 226 201 180 186 193 301 300 301 312 338 30 336 283 316 322 312 319 292 253 236 230 234 243 249 242 239 241 241 239 242 246 248 247 245 251 255 248 249 258 261 269
194 196 204 221 188 190 175 153 207 177 92 53 83 81 57 38 21 12 6 0 343 320 277 249 251 257 262 259 253 249 240 239 245 251 252 250 246 242 246 252 247 224 237 238
Height
1534 1534 1534 1532 1533 1536 1537 1539 1542 1545 1549 1550 1548 1547 1549 1553 1555 1556 1556 1557 1557 1558 1558 1557 1555 1553 1551 1548 1545 1542 1539 1536 1532 1529 1526 1523 1520 1518 1516 1513 1511 1510 1509 1508
1532 1532 1531 1533 1536 1538 1538 1540 1542 1548 1551 1549 1546 1545 1545 1549 1552 1553 1554 1555 1556 1556 1556 1555 1554 1552 1550 1547 1544 1541 1538 1535 1531 1528 1524 1522 1519 1516 1514 1511 1509 1508 1506 1506
1526 1531 1534 1535 1538 1538 1539 1540 1542 1546 1550 1549 1548 1542 1542 1546 1550 1552 1553 1554 1554 1555 1554 1554 1553 1551 1549 1546 1543 1540 1537 1534 1530 1527 1524 1520 1518 1515 1513 1510 1508 1506 1504 1503
1527 1533 1534 1535 1537 1537 1541 1543 1545 1547 1547 1544 1549 1546 1537 1541 1545 1548 1549 1551 1552 1553 1553 1552 1551 1550 1548 1545 1542 1539 1536 1533 1530 1526 1523 1520 1517 1514 1511 1508 1506 1504 1502 1501
1532 1533 1534 1536 1540 1540 1543 1545 1545 1546 1545 1545 1545 1546 1536 1540 1541 1542 1546 1549 1551 1551 1552 1551 1550 1549 1547 1544 1541 1538 1535 1532 1529 1526 1522 1519 1516 1513 1510 1507 1505 1503 1501 1499
1534 1537 1536 1539 1543 1543 1545 1546 1546 1545 1543 1548 1544 1546 1540 1535 1538 1541 1544 1547 1549 1550 1550 1550 1549 1547 1546 1543 1540 1537 1534 1531 1528 1525 1522 1519 1516 1512 1509 1507 1504 1502 1500 1498
1535 1537 1540 1541 1542 1545 1543 1543 1546 1546 1547 1544 1545 1547 1539 1536 1539 1542 1544 1546 1547 1548 1549 1548 1548 1546 1545 1542 1540 1537 1534 1531 1528 1525 1522 1519 1515 1512 1509 1506 1504 1501 1499 1497
1534 1539 1539 1540 1539 1540 1541 1541 1550 1554 1549 1543 1545 1544 1534 1538 1541 1543 1544 1545 1546 1547 1547 1547 1546 1545 1543 1541 1539 1536 1533 1530 1527 1524 1521 1518 1515 1512 1509 1506 1503 1501 1498 1496
1525 1537 1541 1542 1542 1540 1542 1541 1542 1544 1545 1548 1538 1537 1533 1537 1539 1541 1542 1544 1544 1545 1545 1545 1545 1544 1542 1540 1538 1536 1533 1530 1527 1524 1521 1518 1515 1512 1509 1506 1503 1500 1498 1495
1520 1534 1539 1543 1543 1546 1541 1541 1544 1545 1551 1547 1541 1537 1535 1534 1535 1537 1539 1541 1542 1543 1544 1544 1543 1542 1541 1539 1537 1535 1532 1530 1527 1524 1521 1517 1514 1511 1508 1506 1503 1500 1497 1494
1522 1528 1541 1541 1540 1539 1545 1545 1543 1544 1547 1550 1547 1539 1530 1532 1534 1535 1537 1539 1540 1541 1542 1542 1542 1541 1539 1538 1536 1534 1532 1529 1527 1524 1521 1518 1515 1511 1508 1506 1502 1499 1497 1494
1526 1524 1532 1537 1540 1541 1539 1539 1541 1545 1545 1548 1548 1540 1531 1533 1534 1535 1536 1537 1538 1539 1540 1540 1540 1539 1538 1537 1535 1534 1531 1529 1526 1523 1521 1518 1514 1511 1508 1505 1502 1499 1497 1494
1527 1526 1535 1540 1544 1543 1541 1542 1542 1542 1543 1545 1547 1537 1531 1532 1533 1533 1534 1535 1536 1537 1537 1538 1538 1537 1537 1536 1534 1533 1531 1528 1526 1523 1521 1518 1515 1512 1509 1506 1502 1500 1497 1495
1527 1524 1530 1535 1532 1532 1538 1542 1543 1542 1541 1540 1540 1533 1527 1527 1529 1530 1531 1532 1533 1534 1535 1536 1536 1536 1535 1534 1533 1532 1530 1528 1525 1523 1521 1518 1515 1512 1509 1507 1504 1501 1498 1495
1526 1524 1526 1529 1532 1533 1534 1536 1540 1539 1535 1537 1531 1530 1526 1525 1526 1527 1529 1530 1531 1532 1533 1533 1534 1534 1533 1533 1532 1530 1529 1527 1525 1523 1521 1518 1516 1513 1510 1507 1505 1502 1499 1496
1525 1525 1527 1531 1532 1533 1533 1532 1534 1536 1535 1533 1531 1529 1523 1525 1526 1526 1526 1527 1528 1529 1530 1531 1531 1532 1532 1531 1530 1529 1528 1526 1524 1523 1520 1518 1516 1513 1511 1508 1506 1503 1500 1497
1524 1525 1528 1528 1531 1532 1530 1522 1527 1529 1528 1528 1527 1523 1522 1523 1523 1524 1524 1525 1525 1526 1527 1528 1529 1529 1530 1530 1529 1528 1527 1525 1524 1522 1520 1518 1516 1514 1511 1509 1507 1504 1501 1498
1524 1524 1526 1527 1531 1537 1521 1519 1521 1523 1522 1522 1522 1521 1522 1522 1522 1522 1522 1522 1523 1524 1524 1525 1526 1527 1527 1528 1527 1526 1525 1524 1523 1522 1520 1518 1516 1514 1512 1509 1507 1505 1502 1499
1525 1525 1526 1526 1527 1524 1519 1519 1521 1521 1519 1518 1519 1519 1520 1520 1520 1519 1520 1520 1521 1521 1522 1523 1524 1525 1525 1526 1525 1525 1524 1523 1522 1521 1519 1518 1516 1514 1512 1510 1507 1505 1503 1500
1528 1525 1524 1527 1529 1527 1517 1516 1519 1521 1519 1517 1518 1518 1519 1519 1515 1516 1518 1518 1518 1519 1520 1520 1521 1522 1523 1523 1523 1523 1523 1522 1521 1520 1518 1517 1515 1513 1512 1510 1508 1506 1504 1501
1524 1525 1525 1525 1524 1516 1513 1518 1520 1522 1517 1516 1517 1517 1517 1517 1516 1518 1517 1517 1517 1517 1518 1518 1519 1520 1521 1521 1521 1521 1521 1521 1520 1518 1517 1516 1514 1513 1511 1509 1508 1506 1504 1502
1514 1518 1520 1520 1523 1518 1515 1516 1515 1514 1515 1516 1516 1516 1516 1516 1516 1516 1515 1515 1515 1515 1516 1517 1517 1518 1518 1519 1519 1519 1519 1518 1517 1516 1515 1514 1513 1512 1510 1509 1507 1506 1504 1502
1510 1509 1509 1510 1512 1512 1514 1514 1515 1515 1515 1515 1515 1515 1514 1514 1515 1514 1514 1514 1514 1514 1514 1515 1515 1516 1516 1516 1516 1517 1516 1516 1515 1514 1514 1513 1512 1510 1509 1508 1506 1505 1504 1502
1507 1512 1510 1509 1508 1511 1513 1513 1513 1513 1513 1513 1513 1512 1512 1513 1513 1513 1512 1512 1512 1512 1512 1513 1513 1513 1514 1514 1514 1514 1514 1513 1513 1512 1512 1511 1510 1509 1507 1506 1505 1504 1503 1501
1502 1508 1507 1505 1506 1510 1511 1511 1511 1511 1511 1511 1511 1511 1511 1511 1511 1511 1510 1510 1510 1510 1510 1510 1510 1511 1511 1511 1511 1511 1510 1510 1510 1509 1509 1508 1507 1506 1505 1504 1503 1501 1500 1499
1501 1501 1501 1498 1501 1504 1507 1508 1508 1509 1509 1509 1509 1509 1509 1509 1509 1509 1509 1508 1508 1508 1508 1507 1508 1508 1508 1508 1508 1507 1507 1507 1506 1506 1506 1505 1504 1503 1502 1501 1500 1498 1497 1496